TimeEST,TemperatureF,Dew PointF,Humidity,Sea Level PressureIn,VisibilityMPH,Wind Direction,Wind SpeedMPH,Gust SpeedMPH,PrecipitationIn,Events,Conditions,WindDirDegrees,DateUTC
12:53 AM,30.9,16.0,54,30.14,10.0,Calm,Calm,-,N/A,,Overcast,0,2013-02-08 05:53:00
1:53 AM,30.9,19.0,61,30.11,10.0,SW,6.9,-,N/A,,Overcast,220,2013-02-08 06:53:00
2:53 AM,30.9,21.0,67,30.09,10.0,Variable,3.5,-,N/A,,Overcast,0,2013-02-08 07:53:00
3:53 AM,32.0,24.1,73,30.06,10.0,South,10.4,-,N/A,,Overcast,170,2013-02-08 08:53:00
4:53 AM,32.0,25.0,75,30.05,10.0,Calm,Calm,-,N/A,,Overcast,0,2013-02-08 09:53:00
5:04 AM,32.0,24.8,75,30.01,10.0,Calm,Calm,-,N/A,,Overcast,0,2013-02-08 10:04:00
5:53 AM,32.0,26.1,79,30.02,10.0,Calm,Calm,-,N/A,,Overcast,0,2013-02-08 10:53:00
6:53 AM,32.0,27.0,82,30.00,10.0,Variable,3.5,-,N/A,,Overcast,0,2013-02-08 11:53:00
7:53 AM,33.1,28.0,82,29.99,10.0,Calm,Calm,-,N/A,,Overcast,0,2013-02-08 12:53:00
8:53 AM,34.0,28.9,82,29.97,10.0,ESE,3.5,-,N/A,,Overcast,110,2013-02-08 13:53:00
9:53 AM,34.0,28.9,82,29.95,10.0,ESE,3.5,-,N/A,,Overcast,120,2013-02-08 14:53:00
10:53 AM,35.1,28.9,78,29.93,10.0,SE,3.5,-,N/A,,Overcast,140,2013-02-08 15:53:00
11:53 AM,35.1,28.9,78,29.88,10.0,Variable,5.8,-,N/A,,Overcast,0,2013-02-08 16:53:00
12:53 PM,34.0,28.9,82,29.83,10.0,ESE,10.4,17.3,N/A,,Overcast,110,2013-02-08 17:53:00
1:53 PM,35.1,28.0,76,29.80,10.0,Variable,6.9,-,N/A,,Overcast,0,2013-02-08 18:53:00
2:53 PM,34.0,28.0,79,29.79,1.8,SE,5.8,-,0.00,Snow,Light Snow,130,2013-02-08 19:53:00
3:15 PM,33.8,28.4,81,29.76,1.0,Calm,Calm,-,0.01,Snow,Light Snow,0,2013-02-08 20:15:00
3:23 PM,33.8,28.4,81,29.77,0.5,Calm,Calm,-,0.02,Fog-Snow,Snow,0,2013-02-08 20:23:00
3:53 PM,33.1,30.0,89,29.79,0.5,NE,4.6,-,0.05,Fog-Snow,Snow,50,2013-02-08 20:53:00
4:08 PM,33.8,30.2,87,29.76,0.5,NE,4.6,-,0.01,Fog-Snow,Snow,40,2013-02-08 21:08:00
4:27 PM,33.8,30.2,87,29.76,0.8,NNE,4.6,-,0.02,Snow,Light Snow,30,2013-02-08 21:27:00
4:51 PM,33.8,30.2,87,29.76,1.0,North,3.5,-,0.03,Snow,Light Snow,360,2013-02-08 21:51:00
4:53 PM,33.1,30.0,89,29.79,0.8,Calm,Calm,-,0.03,Snow,Light Snow,0,2013-02-08 21:53:00
5:07 PM,33.8,30.2,87,29.76,0.5,NNE,4.6,-,0.01,Fog-Snow,Snow,30,2013-02-08 22:07:00
5:34 PM,33.8,30.2,87,29.76,1.5,ENE,5.8,-,0.02,Snow,Light Snow,60,2013-02-08 22:34:00
5:53 PM,33.1,30.0,89,29.79,1.2,NNE,3.5,-,0.03,Snow,Light Snow,30,2013-02-08 22:53:00
6:53 PM,32.0,30.0,92,29.79,1.0,NNE,4.6,-,0.03,Snow,Light Snow,30,2013-02-08 23:53:00
7:53 PM,32.0,30.0,92,29.79,1.2,NNE,3.5,-,0.04,Snow,Light Snow,20,2013-02-09 00:53:00
8:09 PM,32.0,30.2,93,29.77,2.0,Calm,Calm,-,0.01,Snow,Light Snow,0,2013-02-09 01:09:00
8:16 PM,32.0,30.2,93,29.77,1.5,Calm,Calm,-,0.01,Snow,Light Snow,0,2013-02-09 01:16:00
8:27 PM,32.0,30.2,93,29.77,2.5,Calm,Calm,-,0.01,Snow,Light Snow,0,2013-02-09 01:27:00
8:31 PM,32.0,30.2,93,29.77,3.0,Calm,Calm,-,0.01,Snow,Light Snow,0,2013-02-09 01:31:00
8:46 PM,30.2,24.8,80,29.79,2.5,WNW,19.6,31.1,0.01,Snow,Light Snow,300,2013-02-09 01:46:00
8:53 PM,30.0,24.1,79,29.82,7.0,WNW,17.3,28.8,0.01,Snow,Light Snow,300,2013-02-09 01:53:00
9:18 PM,26.6,19.4,74,29.83,8.0,West,16.1,28.8,0.00,Snow,Light Snow,270,2013-02-09 02:18:00
9:53 PM,24.1,17.1,75,29.90,5.0,West,18.4,27.6,0.00,Snow,Light Snow,270,2013-02-09 02:53:00
10:32 PM,21.2,14.0,74,29.89,2.0,WNW,12.7,21.9,0.00,Snow,Light Snow,290,2013-02-09 03:32:00
10:53 PM,21.0,12.9,71,29.95,3.0,WNW,13.8,-,0.00,Snow,Light Snow,300,2013-02-09 03:53:00
11:53 PM,19.9,12.0,71,29.97,8.0,NW,11.5,24.2,0.00,Snow,Light Snow,310,2013-02-09 04:53:00